Location: The Saddle
(36.8333°N, 80.3417°W)
Time: 16:34:37
(UTC-05:00)

A-11 Canister half - Pass Details

Date: 14 December 2023
Orbit: 1526 x 1682 km, 47.3° (Epoch: 01 March)

Event Time Altitude Azimuth Distance (km) Brightness Sun altitude
Rises 13:38:52 0° 175° (S) 4,831 12.6 26.8°
Reaches altitude 10° 13:43:44 10° 155° (SSE) 3,877 11.8 26.5°
Maximum altitude 13:48:59 16° 122° (ESE) 3,464 11.1 26.1°
Drops below altitude 10° 13:54:16 10° 89° (E) 3,931 11.0 25.6°
Sets 13:59:11 0° 70° (ENE) 4,933 11.3 25.2°
